Theta_e
319 318 318 317 317 319 318 320 320 319 320 321 322 326 328 327 327 327 328 329 329 329 329 328 328 327 326 323 320 316 316 315 314 315 314 317 318 320 318 318 317 319 314
320 319 318 318 316 319 318 320 318 318 320 323 324 325 326 328 328 328 327 328 329 328 327 327 327 326 326 324 320 314 313 313 314 316 316 317 318 317 316 315 318 315 311
318 319 317 318 316 318 318 319 319 317 316 319 322 323 324 324 326 325 324 327 328 328 327 327 325 325 325 323 320 315 314 316 317 316 316 314 313 314 315 314 312 309 307
317 319 317 317 316 316 318 318 319 318 317 316 316 318 319 320 323 323 323 323 323 323 324 325 325 324 323 320 317 316 316 317 318 317 316 314 314 312 314 312 310 308 307
318 320 319 315 316 317 317 318 319 319 318 317 317 317 317 317 317 317 317 318 316 317 317 316 317 317 317 316 316 315 314 318 317 317 317 315 314 312 314 313 312 308 306
319 320 320 315 315 316 317 317 318 318 319 318 318 318 318 319 319 320 320 320 319 317 315 317 320 319 317 317 317 318 315 317 319 318 318 317 317 315 313 313 312 309 309
320 320 319 316 316 316 316 316 317 318 319 318 317 318 319 318 318 318 318 319 319 319 319 319 318 318 317 318 317 316 316 316 318 319 320 318 319 315 313 312 311 311 312
321 320 319 316 316 317 315 315 316 317 318 318 317 318 318 317 317 317 316 316 316 316 315 314 313 313 310 308 310 312 313 314 314 314 315 317 315 315 313 313 312 311 309
321 320 319 316 316 317 317 314 314 315 316 316 316 316 316 315 314 311 309 309 310 309 307 306 304 301 300 302 307 309 309 309 310 311 312 312 310 310 310 309 309 307 308
320 320 319 316 316 317 317 314 313 313 314 314 314 313 312 312 311 310 308 306 306 303 299 298 298 299 300 300 301 301 304 304 301 301 300 300 301 301 302 303 306 305 304
319 320 320 317 316 317 315 315 313 312 312 310 310 310 310 310 310 310 309 307 306 304 304 302 302 300 301 303 304 304 305 304 302 300 300 300 298 298 297 297 299 302 302
320 320 321 319 315 315 315 314 314 313 313 313 313 313 311 309 309 310 310 309 310 312 312 310 307 306 306 306 306 307 306 306 305 304 303 303 302 301 301 301 297 297 301
321 321 321 321 318 315 316 316 316 315 315 315 313 312 311 308 308 308 309 310 311 311 313 311 309 309 309 309 308 307 306 306 306 306 306 306 304 302 301 299 297 299 299
321 322 322 322 320 317 315 316 316 316 315 314 313 313 313 312 309 308 308 308 309 309 309 309 309 309 309 309 308 307 306 307 307 307 306 305 303 302 301 301 300 300 299
321 322 322 321 320 320 317 315 315 316 316 316 315 315 317 317 316 314 312 311 310 310 309 309 309 309 310 310 311 309 308 306 306 305 304 305 304 304 304 303 301 299 300
321 322 322 321 321 320 319 317 314 313 312 313 314 315 317 316 316 316 315 314 315 315 314 313 313 311 311 314 315 315 312 309 307 305 304 304 303 301 301 301 301 301 302
321 321 322 322 322 321 321 319 319 317 314 312 312 313 313 313 314 314 314 315 317 315 313 311 310 311 312 314 314 313 312 308 304 302 300 299 299 300 299 300 300 300 300
320 320 321 321 322 322 322 321 321 321 322 321 318 316 315 315 315 314 314 316 315 314 312 313 314 316 315 312 310 308 305 302 300 299 299 299 299 299 299 299 299 299 299
321 320 321 321 322 322 323 322 322 322 323 324 320 318 318 319 319 317 314 317 318 316 314 313 311 310 308 302 302 301 298 298 298 299 299 299 300 300 300 300 300 298 298
320 320 320 321 322 322 322 323 323 323 324 324 325 318 315 316 315 314 315 315 313 312 310 304 301 300 299 299 299 298 299 299 300 300 300 300 300 300 301 300 300 299 299
321 320 319 321 321 322 322 322 323 323 324 324 319 316 317 317 315 311 309 305 303 300 299 299 299 301 302 302 300 299 298 298 299 298 298 298 299 299 299 299 299 300 300
320 321 319 320 321 321 321 322 323 322 319 315 310 310 309 307 305 304 302 301 304 303 303 302 302 301 300 299 298 297 297 296 296 297 297 298 298 298 298 299 299 298 297
319 320 319 320 321 320 321 320 318 317 314 311 309 309 309 307 306 303 303 302 304 303 299 298 297 298 297 296 296 295 295 295 295 295 296 297 297 297 297 297 296 295 295
319 320 321 320 319 319 318 316 313 312 311 310 309 308 306 304 303 303 300 298 297 297 297 297 296 295 295 294 295 295 295 295 295 295 295 296 296 296 296 296 295 294 294
320 320 319 317 317 315 313 312 311 310 309 307 304 301 300 299 296 297 297 298 297 296 294 294 293 293 293 293 293 294 294 294 294 294 295 295 294 294 294 294 294 294 293
319 317 317 315 314 314 312 310 308 305 304 302 300 299 298 299 297 297 297 296 295 294 293 294 293 293 293 293 294 294 294 294 293 293 293 294 294 294 294 294 294 293 292
Wind_Speed
5 3 1 4 5 8 10 10 8 8 9 12 14 12 18 16 13 11 8 10 9 13 14 16 16 22 18 15 15 8 10 11 16 10 15 14 13 10 11 10 11 10 12
7 5 3 4 6 8 9 12 11 11 11 14 16 17 15 16 14 11 11 10 13 12 11 12 15 16 17 16 13 9 9 10 18 19 14 10 10 11 12 13 11 10 12
8 7 5 5 6 9 10 11 12 13 14 13 14 16 17 17 17 14 15 15 14 12 13 15 16 15 14 13 11 9 11 12 18 20 16 11 10 13 13 12 11 12 10
10 8 7 7 6 9 9 10 11 12 14 16 17 17 17 17 18 17 19 21 20 18 17 17 17 15 16 16 13 11 11 14 13 16 12 10 9 12 10 12 11 10 10
12 10 8 9 8 9 10 9 10 12 13 14 15 17 17 17 17 18 18 18 17 17 16 15 13 11 10 11 11 13 15 15 13 13 12 11 12 12 16 13 12 12 11
14 12 10 10 12 11 11 10 10 12 14 15 15 14 14 14 13 14 15 17 17 17 15 13 12 10 10 9 7 8 15 16 14 13 13 14 14 14 13 13 13 13 11
15 13 13 12 13 13 14 13 13 12 13 13 13 12 11 11 10 9 9 10 10 11 12 12 12 10 8 8 8 7 9 12 12 12 12 13 11 16 16 16 18 18 17
17 16 14 14 14 14 15 14 15 14 13 13 12 10 9 8 8 8 8 8 8 9 9 9 8 8 8 7 8 8 8 9 9 9 11 11 13 13 18 17 17 16 14
19 19 18 17 16 16 14 16 16 16 15 14 13 12 10 9 9 8 8 8 9 9 9 9 8 8 8 8 7 6 5 7 8 10 12 13 14 17 19 17 16 16 17
22 22 21 19 19 18 17 18 17 16 15 13 12 12 11 10 12 12 11 11 12 11 10 10 9 9 8 8 8 7 7 7 9 11 12 14 16 17 18 21 15 18 17
23 22 23 21 21 20 20 19 17 17 14 15 14 14 14 13 13 14 14 13 10 10 8 9 9 9 8 8 7 8 8 9 10 11 12 13 14 15 16 20 21 20 20
24 24 24 23 22 21 23 21 19 18 16 16 14 13 14 16 16 16 16 15 12 7 7 8 8 7 8 10 12 11 12 13 12 12 13 14 13 14 15 18 22 25 23
25 25 24 23 22 22 24 22 19 19 16 15 14 13 13 15 18 18 17 17 17 16 11 11 11 12 12 13 14 13 15 17 15 15 16 16 14 14 17 18 22 23 25
28 26 24 24 23 21 21 20 19 19 18 17 16 15 13 13 16 18 19 20 21 20 21 18 18 17 17 15 17 15 16 14 15 16 18 17 17 16 16 16 19 19 21
30 28 26 25 26 23 23 22 23 22 21 19 19 17 15 15 16 17 15 13 14 15 16 16 14 11 10 10 9 9 10 10 11 12 13 16 18 17 16 16 18 19 22
32 30 30 28 25 24 22 20 28 26 26 26 26 21 16 20 20 22 20 12 8 7 12 12 9 7 7 6 6 5 5 6 6 7 8 12 13 14 14 15 15 17 20
37 33 31 32 29 28 25 23 21 25 30 29 29 30 30 27 25 23 16 11 8 11 9 8 7 6 5 5 6 6 6 6 4 4 7 10 10 11 12 13 14 15 18
40 39 34 33 32 31 29 27 24 22 20 23 28 32 32 30 27 24 17 16 13 11 6 3 2 3 3 4 6 8 6 4 5 9 8 8 10 11 13 14 15 16 16
36 36 39 34 33 33 31 30 28 25 23 22 11 7 5 3 6 9 11 8 5 4 3 4 5 7 6 8 11 7 7 7 10 9 9 9 10 11 13 14 15 15 16
38 40 39 34 32 32 30 30 29 27 27 23 14 9 10 10 11 10 9 11 15 20 14 13 22 13 12 13 16 8 6 11 9 9 10 10 11 11 12 13 13 14 15
29 29 33 30 29 30 29 28 26 23 18 13 12 13 16 16 17 18 17 19 19 21 17 21 16 14 13 17 9 6 11 9 10 10 9 9 10 11 11 11 12 13 15
26 28 34 33 28 27 25 21 18 17 18 19 20 24 27 24 24 22 20 21 24 23 18 19 17 15 14 14 7 7 8 9 9 9 10 11 10 10 11 12 13 13 14
26 25 28 27 22 22 21 20 21 22 24 27 29 26 23 24 23 23 22 22 22 25 22 21 16 21 15 14 11 10 8 8 11 12 9 9 8 9 10 11 12 13 13
22 22 22 21 22 23 24 24 26 31 32 31 29 27 26 25 26 30 32 32 27 24 20 17 14 18 15 14 12 11 10 9 10 8 6 7 8 9 11 12 13 13 12
24 24 25 26 27 29 31 31 31 31 30 30 30 34 30 38 30 29 28 34 25 24 23 22 21 21 18 16 14 12 10 9 8 8 6 8 9 10 11 12 14 15 17
23 30 29 27 29 31 34 36 35 36 35 36 40 42 40 37 26 24 23 26 26 26 23 22 21 18 15 13 10 9 9 10 10 12 9 11 13 15 15 16 18 19 19
Wind_Direction
186 177 105 86 81 52 71 74 66 72 87 106 121 126 146 161 162 164 174 152 141 147 153 160 154 163 163 160 171 157 155 156 147 140 147 153 149 153 163 174 176 182 195
185 174 151 105 102 84 77 81 84 70 82 97 105 111 113 126 134 132 134 142 150 145 156 154 151 159 166 169 164 157 161 151 152 144 151 158 151 171 177 187 182 178 178
170 170 165 135 113 110 88 94 102 86 80 88 97 102 109 117 125 121 119 128 137 149 152 153 149 161 164 161 161 168 163 156 159 162 161 169 169 183 185 186 179 179 175
167 165 162 155 136 136 117 99 109 107 97 89 94 99 105 112 120 122 121 126 132 135 136 142 146 161 164 165 159 165 158 159 163 161 163 171 182 195 191 190 185 187 188
172 171 169 166 160 150 145 128 120 120 116 109 104 100 101 102 108 114 117 120 120 124 128 124 126 130 145 152 165 186 177 175 173 176 180 188 194 189 201 200 205 200 211
179 176 171 173 171 164 158 153 144 140 135 130 124 118 112 107 105 110 118 118 119 123 129 133 137 147 148 154 165 173 193 189 187 195 202 210 211 209 203 206 204 207 224
185 177 173 174 172 170 170 166 164 157 153 151 144 135 127 127 127 127 130 136 140 145 150 157 163 165 168 179 185 188 192 203 215 223 219 222 224 223 214 212 215 222 231
184 180 178 178 176 175 175 174 174 172 169 166 167 167 164 163 167 173 178 182 184 186 188 188 184 184 183 181 182 185 194 206 219 226 237 243 253 254 244 243 234 237 242
185 182 182 181 182 177 177 182 182 181 183 185 188 190 192 196 196 192 190 182 185 187 184 177 169 163 159 157 161 169 190 219 229 237 242 247 250 249 247 237 226 221 240
188 185 184 182 185 185 185 187 189 192 195 195 202 207 206 202 197 189 182 178 184 184 184 182 178 176 175 179 182 190 205 225 234 239 242 245 246 247 242 240 238 232 241
188 182 182 185 186 188 187 191 192 192 193 199 202 207 211 210 203 199 194 187 186 187 186 198 201 202 206 210 223 232 239 253 255 255 258 261 261 258 252 244 238 236 244
187 182 183 187 187 188 188 190 192 193 195 199 204 211 217 214 211 211 213 212 210 202 206 209 222 232 241 247 254 263 264 261 254 252 255 257 257 258 258 253 253 249 242
189 185 185 187 189 191 188 189 190 195 195 200 205 212 217 219 221 221 224 231 236 239 243 244 252 258 262 262 265 270 265 260 259 262 266 269 261 264 270 263 266 259 256
191 189 186 187 190 194 196 196 194 197 200 201 204 212 212 212 221 227 233 238 244 250 257 268 270 269 271 266 275 276 266 263 269 278 286 292 296 290 288 282 273 270 262
190 191 190 192 195 197 201 201 203 210 205 203 211 213 211 220 226 229 234 245 259 273 275 270 263 259 266 271 271 275 276 271 275 285 297 301 294 292 291 288 281 277 269
190 194 194 194 197 201 202 209 220 221 225 229 236 237 238 248 258 270 280 293 296 281 265 254 263 265 274 287 290 303 313 314 311 306 307 299 297 300 304 302 290 279 279
193 195 194 193 198 200 202 205 212 225 231 237 242 249 256 260 267 279 294 291 279 268 253 276 294 317 317 310 309 320 316 313 317 308 322 305 309 315 308 302 297 294 293
193 194 194 200 198 198 204 208 211 214 216 233 245 251 254 257 262 266 268 269 269 262 251 258 269 332 350 19 18 355 354 346 9 12 350 339 327 318 319 316 312 307 302
196 196 197 197 201 202 201 206 212 215 219 226 210 227 232 230 229 227 194 194 191 166 133 107 73 76 60 63 78 32 347 30 27 8 353 342 333 327 322 319 317 316 315
203 203 199 199 198 199 203 207 209 212 215 220 208 179 155 126 127 128 122 126 130 117 110 122 101 92 91 75 58 32 20 36 27 15 350 342 336 331 330 330 332 331 325
208 206 197 198 198 203 203 207 211 212 208 173 153 155 153 132 123 119 114 113 114 104 110 100 101 106 89 78 61 64 35 16 31 17 360 355 348 340 339 339 336 336 338
200 202 194 198 201 202 205 202 193 166 152 133 121 128 127 121 119 117 116 118 111 111 118 115 110 97 86 80 82 63 60 42 32 23 18 15 8 1 356 351 345 341 340
196 194 190 193 190 182 161 162 152 143 138 133 132 130 125 120 118 119 119 117 118 119 119 104 108 104 98 94 81 73 57 40 33 23 20 13 6 2 360 353 349 344 333
173 173 160 160 156 153 147 140 138 139 137 135 133 129 125 124 125 127 126 117 120 118 115 113 110 94 88 84 70 57 48 35 26 21 17 2 353 350 347 345 340 335 327
146 136 141 144 139 131 128 128 128 130 129 130 126 124 124 127 125 128 133 125 131 127 116 110 102 94 86 81 74 65 58 52 43 38 13 6 359 354 348 339 331 325 325
138 136 130 133 133 133 134 133 133 133 131 134 136 135 136 131 135 134 130 128 128 121 117 107 98 93 85 77 75 73 61 49 36 23 24 9 359 350 342 334 332 333 328